Domov               UVHVVR             MKGP            O straneh              
ZDRAVSTVENO VARSTVO RASTLIN
  MREŽA AGROMET. POSTAJ
 ► PROGNOSTIČNA OBVESTILA
AGROMETEOROLOŠKI PODATKI -
ARSO
OBVLADOVANJE TVEGANJ ZARADI
NEUGODNIH VREMENSKIH RAZMER
  ► NARAVNE NESREČE
  ► SUŠA/MOČA
  ► NAMAKANJE
  ► ŽLED (gozdarstvo)
KARTOGRAFSKI PRIKAZI
SPLETNE POVEZAVE
PROJEKTI IN PUBLIKACIJE

AGROMETEOROLOŠKA MREŽA: VREMENSKE POSTAJE IN FENOLOŠKA OPAZOVANJA

Pregled podatkov za lokacijo Gabernik-Rogaška, meteorološka postaja 37800

Pregled senzorjev na lokaciji

ID Ime Zadnja
vrednost
Datum
zadnje
spremembe
Tip
senzorja
1826 Temperatura 2 m ( °C) 15,36 °C 21.8.2017 02:00 50YA
1827 Relativna vlaga 2 m (% RH) 49,87 % RH 21.8.2017 02:00 50YA
1828 Omočenost lista (U) 0 U 21.8.2017 02:00 A730WET
1829 Padavine 0.2 mm (mm) 0 mm 21.8.2017 02:00 Rain-O-Matic

Pregled podatkov zadnjih 24 ur

Zap.
št.
Datum in čas Gabernik-Rogaška
Omočenost
lista
Padavine
0.2
mm
Relativna
vlaga
2
m
Temperatura
2
m
0 21.8.2017 01:00 0 0 49,87 15,36
1 21.8.2017 00:30 0 0 50,57 15,34
2 21.8.2017 00:00 0 0 50,55 15,65
3 20.8.2017 23:30 0 0 52,53 15,63
4 20.8.2017 23:00 0 0 53,77 15,75
5 20.8.2017 22:30 0 0 55,9 15,7
6 20.8.2017 22:00 0 0 56,97 16,02
7 20.8.2017 21:30 0 0 60,95 16,07
8 20.8.2017 21:00 0 0 68,25 15,85
9 20.8.2017 20:30 0 0 65,93 16,63
10 20.8.2017 20:00 0 0 63,81 17,02
11 20.8.2017 19:30 0 0 63,32 17,24
12 20.8.2017 19:00 0 0 64,52 17,48
13 20.8.2017 18:30 0 0 62,95 18,61
14 20.8.2017 18:00 0 0 61,54 18,8
15 20.8.2017 17:30 0 0 60 18,78
16 20.8.2017 17:00 0 0 56,92 19,46
17 20.8.2017 16:30 0 0 57,56 19,71
18 20.8.2017 16:00 0 0 50,82 21,81
19 20.8.2017 15:30 0 0 49,45 23,76
20 20.8.2017 15:00 0 0 52,75 22,93
21 20.8.2017 14:30 0 0 46,57 24,27
22 20.8.2017 14:00 0 0 48,52 23,71
23 20.8.2017 13:30 0 0 48,89 23,59
24 20.8.2017 13:00 0 0 51,16 22,27
25 20.8.2017 12:30 0 0 50,28 21,98
26 20.8.2017 12:00 0 0 51,28 21,1
27 20.8.2017 11:30 0 0 52,77 20,66
28 20.8.2017 11:00 0 0 62,56 19,39
29 20.8.2017 10:30 0 0 71,89 18,8
30 20.8.2017 10:00 0 0 81,27 17,66
31 20.8.2017 09:30 0 0 90,92 16,8
32 20.8.2017 09:00 0 0 91,87 15,6
33 20.8.2017 08:30 0 0 96,39 14,75
34 20.8.2017 08:00 0 0 97,88 14,41
35 20.8.2017 07:30 2 0 97,34 14,38
36 20.8.2017 07:00 10 0 96,95 13,36
37 20.8.2017 06:30 10 0 98,17 12,89
38 20.8.2017 06:00 10 0 98,83 12,7
39 20.8.2017 05:30 10 0 99,1 12,63
40 20.8.2017 05:00 10 0 99,05 12,87
41 20.8.2017 04:30 10 0 98,61 12,97
42 20.8.2017 04:00 10 0 98,85 13,04
43 20.8.2017 03:30 10 0 98,29 12,94
44 20.8.2017 03:00 9 0,4 97,85 13,04
© 2011 Ministrstvo za kmetijstvo, gozdarstvo in prehrano. Vse pravice pridržane.